Cambridge, MD

4:56 PM EDT on April 23, 2017 (GMT -0400)
Cambridge-Dorchester

Weather History for KCGE - October, 2013

Change the Weather History Date:

Tuesday, October 15, 2013

  Actual Average (KESN) Record (KESN)
Temperature  
Mean Temperature 61 °F -  
Max Temperature 69 °F 76 °F 85 °F (1975)
Min Temperature 53 °F 48 °F 35 °F (1976)
Degree Days  
Heating Degree Days 4    
Growing Degree Days 11 (Base 50)    
Moisture  
Dew Point 54 °F    
Average Humidity 81    
Maximum Humidity 94    
Minimum Humidity 60    
Precipitation  
Precipitation 0.00 in - - ()
Sea Level Pressure  
Sea Level Pressure 30.16 in    
Wind  
Wind Speed 5 mph (NNE)    
Max Wind Speed 10 mph    
Max Gust Speed 17 mph    
Visibility 10 miles    
Events      
Averages and records for this station are not official NWS values.
T = Trace of Precipitation, MM = Missing Value Source: NWS Daily Summary

Daily Weather History Graph

Daily Weather History Graph

Search for Another Location

Airport or City:

Trip Planner

Search our weather history database for the weather conditions in past years. The results will help you decide how hot, cold, wet, or windy it might be!

Date:

Astronomy

Oct. 15, 2013 Rise Set
Actual Time 7:13 AM EDT 6:25 PM EDT
Civil Twilight 6:46 AM EDT 6:52 PM EDT
Nautical Twilight 6:15 AM EDT 7:23 PM EDT
Astronomical Twilight 5:45 AM EDT 7:53 PM EDT
Moon 4:27 PM EDT (10/15) 3:35 AM EDT (10/15)
Length of Visible Light 12h 05m
Length of Day
11h 12m
Waxing Gibbous, 87% of the Moon is Illuminated
Oct 15
Waxing Gibbous
Oct 18
Full
Oct 26
Last Quarter
Nov 3
New
Nov 10
First Quarter

Hourly Weather History & Observations

Time (EDT) Temp. Dew Point Humidity Pressure Visibility Wind Dir Wind Speed Gust Speed Precip Events Conditions
12:02 AM 55.4 °F 53.6 °F 94% 30.24 in 10.0 mi NNE 3.5 mph - N/A   Clear
12:22 AM 55.4 °F 53.6 °F 94% 30.23 in 10.0 mi NNE 3.5 mph - N/A   Clear
12:42 AM 55.4 °F 53.6 °F 94% 30.23 in 10.0 mi NNE 3.5 mph - N/A   Clear
1:02 AM 55.4 °F 53.6 °F 94% 30.22 in 10.0 mi NNE 3.5 mph - N/A   Clear
1:22 AM 55.4 °F 53.6 °F 94% 30.22 in 10.0 mi North 3.5 mph - N/A   Clear
1:42 AM 53.6 °F 50.0 °F 88% 30.21 in 10.0 mi North 3.5 mph - N/A   Clear
2:02 AM 53.6 °F 51.8 °F 94% 30.21 in 10.0 mi NE 3.5 mph - N/A   Clear
2:22 AM 55.4 °F 53.6 °F 94% 30.20 in 10.0 mi NNE 3.5 mph - N/A   Clear
2:42 AM 53.6 °F 50.0 °F 88% 30.20 in 10.0 mi NNE 4.6 mph - N/A   Clear
3:02 AM 55.4 °F 51.8 °F 88% 30.19 in 10.0 mi NNE 4.6 mph - N/A   Clear
3:22 AM 55.4 °F 51.8 °F 88% 30.19 in 10.0 mi NNE 4.6 mph - N/A   Clear
3:42 AM 53.6 °F 50.0 °F 88% 30.18 in 10.0 mi North 5.8 mph - N/A   Clear
4:02 AM 53.6 °F 50.0 °F 88% 30.18 in 10.0 mi NNE 3.5 mph - N/A   Clear
4:22 AM 55.4 °F 53.6 °F 94% 30.19 in 10.0 mi North 5.8 mph - N/A   Clear
4:42 AM 55.4 °F 53.6 °F 94% 30.19 in 10.0 mi North 6.9 mph - N/A   Clear
5:02 AM 55.4 °F 53.6 °F 94% 30.20 in 10.0 mi North 4.6 mph - N/A   Clear
5:22 AM 53.6 °F 50.0 °F 88% 30.20 in 10.0 mi North 5.8 mph - N/A   Clear
5:42 AM 55.4 °F 53.6 °F 94% 30.19 in 10.0 mi North 8.1 mph - N/A   Clear
6:03 AM 53.6 °F 51.8 °F 94% 30.19 in 10.0 mi North 6.9 mph - N/A   Clear
6:23 AM 53.6 °F 51.8 °F 94% 30.18 in 10.0 mi North 6.9 mph - N/A   Clear
6:43 AM 53.6 °F 51.8 °F 94% 30.18 in 10.0 mi NNE 5.8 mph - N/A   Clear
7:03 AM 53.6 °F 51.8 °F 94% 30.18 in 10.0 mi North 5.8 mph - N/A   Clear
7:23 AM 55.4 °F 53.6 °F 94% 30.18 in 10.0 mi NNE 5.8 mph - N/A   Clear
7:43 AM 55.4 °F 53.6 °F 94% 30.19 in 10.0 mi North 4.6 mph - N/A   Clear
8:03 AM 55.4 °F 53.6 °F 94% 30.19 in 10.0 mi North 6.9 mph - N/A   Clear
8:23 AM 55.4 °F 53.6 °F 94% 30.19 in 10.0 mi NNE 6.9 mph - N/A   Clear
8:43 AM 55.4 °F 53.6 °F 94% 30.20 in 10.0 mi NNE 8.1 mph - N/A   Clear
9:03 AM 59.0 °F 53.6 °F 82% 30.20 in 10.0 mi North 8.1 mph - N/A   Clear
9:23 AM 59.0 °F 53.6 °F 82% 30.20 in 10.0 mi NNE 8.1 mph - N/A   Clear
9:43 AM 60.8 °F 55.4 °F 82% 30.20 in 10.0 mi NNE 6.9 mph - N/A   Clear
10:03 AM 60.8 °F 53.6 °F 77% 30.20 in 10.0 mi North 6.9 mph - N/A   Clear
10:23 AM 62.6 °F 53.6 °F 72% 30.20 in 10.0 mi NNE 5.8 mph - N/A   Clear
10:43 AM 64.4 °F 55.4 °F 73% 30.19 in 10.0 mi ENE 5.8 mph - N/A   Clear
11:03 AM 66.2 °F 55.4 °F 68% 30.18 in 10.0 mi ENE 10.4 mph 17.3 mph N/A   Clear
11:23 AM 68.0 °F 55.4 °F 64% 30.17 in 10.0 mi NNE 8.1 mph - N/A   Clear
11:43 AM 68.0 °F 55.4 °F 64% 30.17 in 10.0 mi NNE 9.2 mph - N/A   Clear
12:03 PM 69.8 °F 57.2 °F 64% 30.16 in 10.0 mi ENE 6.9 mph - N/A   Scattered Clouds
12:23 PM 69.8 °F 57.2 °F 64% 30.16 in 10.0 mi ENE 6.9 mph - N/A   Mostly Cloudy
12:43 PM 69.8 °F 55.4 °F 60% 30.15 in 10.0 mi NE 8.1 mph - N/A   Scattered Clouds
1:03 PM 69.8 °F 57.2 °F 64% 30.15 in 10.0 mi NE 4.6 mph - N/A   Mostly Cloudy
1:23 PM 69.8 °F 57.2 °F 64% 30.15 in 10.0 mi North 5.8 mph - N/A   Overcast
1:43 PM 69.8 °F 57.2 °F 64% 30.14 in 10.0 mi NE 6.9 mph - N/A   Overcast
2:03 PM 68.0 °F 55.4 °F 64% 30.13 in 10.0 mi NE 5.8 mph - N/A   Overcast
2:24 PM 68.0 °F 55.4 °F 64% 30.12 in 10.0 mi ENE 3.5 mph - N/A   Overcast
2:44 PM 69.8 °F 59.0 °F 68% 30.11 in 10.0 mi NE 5.8 mph - N/A   Overcast
3:04 PM 69.8 °F 59.0 °F 68% 30.11 in 10.0 mi ENE 4.6 mph - N/A   Mostly Cloudy
3:24 PM 69.8 °F 59.0 °F 68% 30.11 in 10.0 mi East 4.6 mph - N/A   Mostly Cloudy
3:44 PM 68.0 °F 57.2 °F 68% 30.10 in 10.0 mi East 5.8 mph - N/A   Mostly Cloudy
4:04 PM 68.0 °F 55.4 °F 64% 30.11 in 10.0 mi East 4.6 mph - N/A   Mostly Cloudy
4:23 PM 68.0 °F 57.2 °F 68% 30.11 in 10.0 mi East 5.8 mph - N/A   Mostly Cloudy
4:44 PM 64.4 °F 55.4 °F 73% 30.12 in 7.0 mi ENE 3.5 mph - N/A   Mostly Cloudy
5:04 PM 64.4 °F 55.4 °F 73% 30.12 in 10.0 mi NE 3.5 mph - N/A   Mostly Cloudy
5:24 PM 64.4 °F 55.4 °F 73% 30.12 in 10.0 mi Calm Calm - N/A   Mostly Cloudy
5:44 PM 64.4 °F 55.4 °F 73% 30.11 in 10.0 mi Calm Calm - N/A   Mostly Cloudy
6:04 PM 64.4 °F 55.4 °F 73% 30.12 in 10.0 mi North 4.6 mph - N/A   Mostly Cloudy
6:24 PM 62.6 °F 55.4 °F 77% 30.12 in 10.0 mi Calm Calm - N/A   Mostly Cloudy
6:44 PM 62.6 °F 55.4 °F 77% 30.12 in 10.0 mi East 3.5 mph - N/A   Mostly Cloudy
7:04 PM 62.6 °F 57.2 °F 82% 30.12 in 10.0 mi ENE 4.6 mph - N/A   Mostly Cloudy
7:24 PM 60.8 °F 55.4 °F 82% 30.11 in 10.0 mi ENE 4.6 mph - N/A   Scattered Clouds
7:44 PM 60.8 °F 55.4 °F 82% 30.12 in 10.0 mi Calm Calm - N/A   Mostly Cloudy
8:04 PM 60.8 °F 55.4 °F 82% 30.11 in 10.0 mi Calm Calm - N/A   Overcast
8:24 PM 60.8 °F 55.4 °F 82% 30.10 in 10.0 mi Calm Calm - N/A   Scattered Clouds
8:44 PM 60.8 °F 55.4 °F 82% 30.10 in 10.0 mi Calm Calm - N/A   Mostly Cloudy
9:04 PM 60.8 °F 55.4 °F 82% 30.11 in 10.0 mi Calm Calm - N/A   Mostly Cloudy
9:24 PM 60.8 °F 53.6 °F 77% 30.11 in 10.0 mi Calm Calm - N/A   Overcast
9:44 PM 60.8 °F 53.6 °F 77% 30.11 in 10.0 mi Calm Calm - N/A   Overcast
10:04 PM 60.8 °F 53.6 °F 77% 30.11 in 10.0 mi Calm Calm - N/A   Overcast
10:24 PM 60.8 °F 55.4 °F 82% 30.11 in 10.0 mi Calm Calm - N/A   Overcast
10:44 PM 60.8 °F 55.4 °F 82% 30.11 in 10.0 mi NE 3.5 mph - N/A   Overcast
11:05 PM 60.8 °F 53.6 °F 77% 30.09 in 10.0 mi ENE 3.5 mph - N/A   Overcast
11:45 PM 60.8 °F 55.4 °F 82% 30.08 in 10.0 mi Calm Calm - N/A   Overcast